Wind_Speed
34 36 38 38 37 36 36 36 36 38 40 40 40 38 35 35 34 34 35 36 36 36 38 38 39 37 35 35 35 36 38 41 42 43 44 46 48 50 51 53 54 56 57
36 38 39 40 39 39 39 38 39 41 43 44 43 41 38 36 35 35 37 38 39 39 40 40 39 37 36 35 35 36 37 40 42 43 44 46 48 51 53 55 57 59 60
37 38 39 40 40 40 40 40 42 44 46 47 45 41 38 36 36 37 37 38 39 40 41 40 39 39 39 38 38 38 39 41 43 45 47 48 50 52 55 58 60 61 62
37 37 38 38 38 39 41 42 44 47 48 48 45 40 36 34 35 37 37 38 40 41 40 40 41 41 41 42 41 41 42 44 46 49 51 53 54 55 56 58 60 61 61
37 37 37 36 37 39 41 44 46 48 49 48 43 39 36 34 35 37 39 41 41 42 43 43 44 45 45 45 45 45 46 47 50 52 55 57 59 60 60 59 59 60 60
38 36 35 35 36 39 42 45 47 48 48 47 43 42 40 38 39 41 42 44 45 45 45 46 47 47 48 48 48 48 50 51 54 56 59 61 62 63 63 62 61 61 62
33 32 32 34 37 40 43 45 47 47 48 46 44 44 44 43 43 44 44 45 46 46 47 48 49 49 50 50 50 51 53 55 57 60 62 63 64 64 64 63 63 64 65
29 30 32 35 38 41 43 45 45 45 45 45 45 44 44 44 45 46 46 47 47 48 49 50 50 51 52 52 53 54 57 58 61 63 64 65 66 66 67 68 68 68 67
29 32 35 37 41 43 44 43 44 44 43 42 42 42 44 45 47 48 49 50 51 52 52 51 52 52 53 54 56 58 60 62 64 65 66 66 67 68 70 70 69 69 68
32 35 38 41 44 45 46 45 44 41 39 39 40 43 45 47 49 51 52 53 54 54 55 55 56 56 57 58 61 62 63 64 65 67 67 68 68 69 69 68 69 69 70
36 38 41 44 45 45 46 46 43 38 37 39 41 44 47 50 53 54 56 57 58 58 59 59 60 61 62 62 63 63 63 63 64 66 66 67 66 66 67 67 69 70 72
38 40 42 43 45 46 47 46 42 37 37 40 43 47 51 54 56 57 59 60 61 62 63 63 64 64 64 64 63 62 62 63 63 63 63 63 64 64 65 66 68 69 70
44 44 44 44 45 46 47 46 43 42 41 43 47 51 54 56 58 60 62 63 64 65 65 65 64 63 63 62 62 62 62 61 61 61 61 60 61 62 63 65 66 65 64
46 44 42 42 43 45 47 47 47 47 47 49 51 53 55 58 60 62 63 64 64 64 63 62 61 61 61 61 60 60 60 61 61 59 58 58 59 61 62 61 60 58 54
45 41 40 43 47 51 53 55 54 54 54 54 54 54 56 57 59 60 61 61 61 60 59 59 59 59 59 59 59 60 59 56 55 55 55 56 58 58 57 54 51 47 43
48 47 48 51 54 55 56 57 57 57 56 56 55 55 56 56 56 57 57 57 57 57 57 58 57 57 58 58 57 55 53 52 52 53 54 54 53 51 48 44 41 37 34
53 54 56 57 56 56 56 56 56 55 55 54 54 53 53 52 52 53 54 54 53 54 55 55 56 56 55 54 52 50 50 51 51 51 50 48 45 41 38 34 31 29 25
58 57 56 55 55 55 54 54 54 53 53 52 51 50 49 49 49 50 50 50 51 52 53 53 53 52 50 48 48 48 49 49 48 46 43 40 35 32 28 25 23 21 18
53 53 52 53 53 53 53 53 52 51 49 47 45 44 44 45 46 47 48 49 49 50 50 49 47 46 45 45 46 46 45 44 41 38 35 31 27 24 21 19 17 14 13
49 50 50 50 51 51 51 50 48 46 43 42 41 41 42 43 44 45 46 46 46 44 43 42 43 43 43 43 42 40 38 35 32 30 28 25 21 17 15 13 11 10 11
47 47 47 48 47 47 46 44 42 40 39 38 39 40 40 41 42 41 41 41 40 40 41 41 40 39 38 37 35 33 30 27 25 23 21 19 15 12 9 8 9 9 11
43 44 44 43 42 41 39 38 37 36 36 36 37 37 37 37 37 37 38 38 38 38 37 36 35 33 32 31 29 26 23 21 19 17 15 12 9 8 7 7 8 10 12
40 40 38 37 36 35 34 33 33 33 33 33 33 33 34 35 36 36 36 35 34 33 32 30 29 28 27 25 22 20 18 16 13 10 7 5 5 5 6 7 9 12 14
33 32 31 30 29 29 29 29 29 29 30 31 32 34 35 35 34 34 33 31 29 28 26 25 24 23 21 19 18 16 14 9 6 3 3 4 5 6 7 9 11 13 15
25 24 24 24 24 24 25 26 27 29 30 31 32 33 33 32 31 29 27 25 24 22 21 20 19 18 17 15 14 13 9 5 3 3 5 6 7 7 8 10 12 13 14
18 18 18 19 20 22 24 26 28 29 30 31 31 30 29 27 25 23 22 20 19 18 17 17 16 15 13 12 10 7 4 2 5 7 8 8 8 8 10 11 12 14 15
Wind_Direction
285 287 290 293 297 300 304 307 308 306 304 301 299 297 293 290 288 286 287 289 290 292 293 294 294 294 296 295 293 287 283 282 283 285 287 289 290 291 292 291 290 289 288
282 286 290 293 296 298 301 303 304 303 301 299 297 291 289 287 283 283 285 285 285 288 290 291 293 293 295 292 291 289 286 285 286 288 289 290 291 292 292 291 290 289 288
278 283 288 291 293 295 297 298 298 297 296 293 290 285 284 285 283 284 284 287 289 290 292 296 297 296 294 292 290 289 288 289 289 289 290 291 291 291 291 291 290 289 288
272 279 284 287 289 290 291 292 293 293 292 288 289 285 285 287 289 290 289 290 291 293 297 299 298 295 293 292 291 290 290 290 290 291 291 292 293 292 291 291 291 291 291
265 271 277 282 285 285 286 287 288 289 289 289 290 291 293 295 294 294 293 293 296 298 297 296 295 294 293 292 292 291 291 291 291 292 293 294 294 293 292 291 292 292 292
261 265 271 277 280 280 279 281 283 286 287 290 293 298 299 298 296 294 294 295 296 295 294 294 293 292 293 292 292 290 291 292 292 292 293 294 294 294 294 293 292 292 292
256 259 265 270 273 274 274 277 281 284 287 292 296 297 297 295 294 293 293 294 294 294 293 293 293 293 293 291 290 291 291 292 292 292 293 293 294 294 294 294 293 293 292
254 256 260 263 265 267 270 274 279 283 287 292 294 294 293 292 293 293 292 293 293 293 293 293 293 293 293 292 291 292 292 292 292 293 293 294 294 294 294 295 295 294 292
260 261 263 264 266 268 271 275 278 282 286 289 292 291 291 292 292 291 291 291 291 292 293 293 294 294 294 294 294 294 294 294 294 295 294 294 296 296 297 296 295 293 291
270 269 270 270 270 272 273 277 277 278 282 285 288 290 290 290 291 290 291 291 291 291 292 293 294 295 295 295 295 296 296 296 297 297 297 297 297 298 297 295 293 293 292
269 270 272 275 277 279 280 280 276 275 281 285 287 289 289 289 289 289 288 289 289 291 292 293 294 296 296 296 296 297 297 299 300 300 299 298 298 297 296 294 294 294 294
270 272 274 275 278 279 282 286 282 278 282 284 286 287 287 287 287 287 287 288 289 291 293 294 295 296 296 296 297 297 298 300 301 301 301 299 298 296 296 296 296 296 297
273 275 276 276 279 283 286 287 287 288 286 286 287 287 286 286 286 286 286 287 288 290 291 293 294 295 296 297 298 299 301 302 302 301 300 299 297 297 298 298 299 299 300
272 273 275 279 283 285 289 291 292 292 291 290 288 287 286 285 285 285 285 286 288 290 291 293 294 295 297 299 301 302 302 302 302 301 299 299 299 299 300 301 302 302 303
274 277 281 285 286 288 291 292 293 292 293 292 290 288 286 285 285 285 286 287 289 290 292 294 295 298 300 301 302 303 302 302 300 300 300 300 301 302 303 304 305 306 306
276 282 286 288 289 290 290 290 291 292 292 292 290 289 288 287 287 288 288 289 291 292 294 296 298 300 301 302 302 302 300 300 300 301 301 302 304 305 306 308 309 311 312
283 287 288 289 289 290 290 290 291 291 291 291 290 290 290 289 289 289 290 292 293 295 295 297 299 300 301 301 300 300 300 301 301 301 302 304 306 308 309 312 314 316 318
286 287 288 289 290 290 291 291 292 292 292 292 292 291 290 289 289 290 292 294 295 296 297 299 299 299 299 299 300 300 301 301 301 302 304 307 309 311 313 316 319 321 324
285 287 289 290 291 292 292 293 293 293 294 294 293 291 290 290 290 292 293 295 295 297 298 299 299 299 300 301 301 301 301 302 303 305 308 311 314 316 318 322 325 328 334
285 287 289 290 290 291 292 293 294 294 293 293 292 291 291 292 292 293 294 296 297 298 299 300 301 301 301 301 302 302 303 304 306 309 312 316 319 323 327 333 338 343 347
286 287 288 289 291 292 293 294 295 295 294 293 293 294 294 295 296 296 298 300 300 301 301 302 302 302 302 302 303 304 304 306 307 309 312 316 323 332 341 347 353 358 358
286 288 289 290 292 293 294 295 296 295 295 295 295 296 297 298 299 300 301 302 302 303 303 303 303 303 303 304 306 307 308 309 308 308 311 318 333 347 357 6 9 5 0
288 289 291 292 293 295 296 296 297 297 298 298 299 301 302 302 303 303 304 304 304 304 304 304 304 305 307 308 309 310 311 311 308 308 316 340 5 19 24 20 14 9 6
290 291 292 294 295 297 297 298 300 302 303 305 305 305 305 305 305 305 304 304 304 304 304 306 307 309 311 312 314 315 317 320 318 327 16 44 50 49 38 27 20 16 16
294 295 296 297 299 301 303 306 309 310 310 309 308 307 307 306 305 304 303 304 304 306 308 310 312 313 314 316 319 321 328 341 22 69 77 76 69 54 40 31 27 27 29
298 301 304 306 309 312 314 315 315 314 313 312 310 309 308 307 306 305 305 306 308 310 312 313 316 318 319 321 322 327 342 59 92 92 87 79 67 55 45 39 38 39 41
Height
5864 5863 5861 5861 5860 5860 5860 5859 5858 5855 5852 5849 5848 5845 5844 5843 5842 5840 5837 5835 5833 5831 5830 5828 5826 5825 5822 5820 5818 5815 5813 5811 5809 5807 5805 5802 5797 5793 5789 5784 5780 5776 5772
5858 5857 5856 5854 5853 5853 5853 5852 5852 5849 5845 5843 5840 5836 5834 5833 5832 5831 5829 5826 5824 5822 5821 5819 5817 5815 5813 5811 5808 5806 5803 5800 5798 5797 5794 5791 5788 5782 5777 5772 5767 5763 5758
5852 5851 5850 5849 5848 5847 5846 5846 5845 5842 5838 5834 5831 5826 5825 5825 5824 5822 5820 5817 5815 5814 5813 5810 5808 5806 5804 5801 5798 5796 5793 5790 5787 5785 5782 5779 5776 5772 5766 5759 5754 5749 5744
5847 5846 5845 5844 5843 5841 5840 5839 5837 5834 5830 5824 5821 5817 5816 5817 5816 5814 5812 5810 5807 5805 5803 5801 5799 5796 5794 5791 5788 5785 5783 5780 5776 5772 5769 5765 5762 5757 5753 5747 5739 5733 5728
5841 5841 5840 5839 5837 5835 5833 5832 5830 5827 5822 5816 5812 5810 5809 5809 5808 5807 5805 5802 5800 5798 5795 5792 5789 5786 5783 5780 5777 5774 5772 5768 5764 5759 5755 5750 5745 5741 5737 5733 5726 5719 5712
5834 5834 5834 5832 5831 5829 5827 5825 5822 5819 5814 5808 5804 5803 5803 5802 5802 5801 5799 5796 5793 5790 5787 5783 5780 5776 5773 5770 5766 5763 5759 5755 5751 5746 5740 5735 5729 5724 5719 5715 5711 5705 5698
5826 5826 5826 5825 5823 5821 5819 5816 5814 5811 5808 5803 5800 5798 5798 5797 5796 5794 5792 5789 5785 5781 5778 5774 5770 5766 5762 5758 5754 5751 5747 5742 5737 5731 5726 5720 5714 5708 5702 5697 5693 5688 5683
5818 5818 5818 5817 5815 5813 5810 5808 5806 5804 5801 5798 5795 5793 5791 5790 5788 5786 5783 5779 5775 5771 5767 5763 5759 5755 5751 5747 5742 5738 5733 5728 5723 5717 5711 5704 5697 5691 5685 5679 5674 5669 5664
5812 5811 5810 5809 5807 5804 5801 5799 5797 5796 5794 5791 5789 5786 5784 5781 5779 5775 5772 5768 5764 5760 5756 5752 5748 5743 5739 5734 5729 5724 5718 5713 5707 5701 5694 5688 5681 5674 5667 5659 5652 5647 5644
5806 5805 5804 5802 5799 5797 5794 5792 5789 5787 5785 5783 5781 5778 5775 5771 5768 5765 5760 5756 5752 5748 5744 5739 5735 5730 5725 5719 5714 5708 5702 5697 5690 5684 5678 5671 5664 5657 5649 5641 5633 5625 5619
5798 5797 5795 5793 5791 5788 5785 5782 5780 5777 5776 5774 5771 5768 5764 5761 5757 5753 5748 5744 5739 5735 5731 5726 5721 5715 5710 5704 5698 5693 5687 5681 5674 5667 5661 5654 5647 5639 5631 5623 5614 5605 5596
5789 5788 5787 5785 5782 5779 5776 5774 5771 5768 5767 5765 5761 5758 5754 5750 5745 5741 5736 5731 5726 5722 5717 5711 5706 5700 5695 5689 5684 5678 5672 5666 5659 5652 5645 5637 5630 5622 5613 5605 5595 5586 5576
5780 5779 5777 5775 5773 5770 5767 5765 5762 5759 5757 5754 5751 5746 5742 5738 5733 5728 5723 5718 5713 5708 5703 5698 5692 5686 5680 5675 5669 5663 5657 5650 5644 5637 5629 5621 5613 5605 5596 5587 5578 5568 5559
5770 5768 5767 5765 5763 5760 5757 5754 5752 5749 5746 5742 5738 5733 5729 5724 5719 5714 5709 5704 5699 5694 5689 5684 5678 5672 5666 5660 5654 5648 5642 5636 5628 5621 5613 5605 5597 5589 5581 5572 5562 5553 5545
5760 5757 5755 5754 5752 5750 5747 5743 5740 5736 5732 5728 5724 5720 5715 5710 5705 5700 5694 5689 5684 5679 5675 5669 5664 5658 5652 5646 5640 5634 5627 5620 5613 5606 5598 5591 5582 5574 5566 5558 5549 5541 5534
5749 5747 5745 5743 5741 5738 5735 5731 5727 5723 5718 5714 5709 5705 5700 5695 5690 5685 5679 5674 5670 5665 5660 5655 5649 5644 5638 5632 5625 5619 5613 5606 5600 5592 5585 5577 5569 5562 5554 5546 5539 5532 5525
5738 5736 5734 5731 5728 5725 5721 5718 5713 5709 5704 5699 5695 5690 5685 5680 5675 5670 5665 5661 5656 5651 5646 5641 5636 5630 5624 5618 5612 5605 5599 5593 5587 5580 5573 5566 5559 5552 5546 5539 5532 5526 5520
5727 5724 5721 5718 5715 5712 5708 5703 5699 5694 5690 5685 5680 5675 5670 5666 5661 5657 5652 5648 5643 5638 5633 5628 5623 5617 5611 5605 5599 5592 5586 5580 5574 5568 5562 5556 5551 5545 5539 5533 5528 5523 5517
5715 5712 5709 5706 5702 5698 5694 5690 5685 5681 5676 5671 5667 5662 5658 5653 5649 5644 5640 5635 5630 5625 5620 5615 5610 5604 5599 5593 5587 5581 5575 5569 5563 5558 5553 5549 5544 5539 5534 5529 5525 5521 5517
5705 5702 5698 5695 5691 5687 5682 5678 5673 5668 5664 5659 5655 5650 5646 5642 5637 5633 5628 5623 5618 5613 5608 5603 5598 5593 5587 5582 5576 5570 5565 5560 5555 5551 5547 5543 5539 5535 5531 5527 5524 5520 5517
5694 5691 5688 5684 5680 5675 5671 5666 5662 5657 5653 5648 5644 5639 5635 5630 5626 5621 5616 5611 5607 5602 5597 5592 5587 5582 5577 5572 5567 5562 5558 5553 5550 5546 5543 5539 5536 5533 5529 5526 5524 5520 5517
5684 5681 5677 5673 5669 5665 5661 5656 5652 5647 5643 5638 5634 5629 5625 5620 5615 5611 5606 5601 5597 5592 5587 5582 5577 5572 5568 5564 5559 5555 5551 5548 5545 5542 5540 5537 5534 5532 5529 5527 5524 5521 5518
5674 5671 5667 5663 5659 5656 5651 5647 5643 5638 5633 5629 5624 5619 5615 5610 5606 5601 5596 5592 5587 5582 5578 5573 5569 5565 5561 5557 5553 5550 5547 5544 5542 5539 5538 5536 5534 5532 5530 5528 5525 5522 5519
5665 5662 5658 5655 5651 5647 5643 5639 5635 5630 5625 5620 5615 5610 5606 5601 5596 5592 5587 5583 5579 5575 5571 5567 5563 5559 5556 5552 5549 5546 5543 5541 5539 5538 5537 5536 5534 5533 5531 5529 5527 5524 5520
5658 5655 5651 5648 5645 5641 5637 5632 5628 5623 5618 5613 5608 5602 5597 5592 5588 5583 5580 5576 5572 5569 5566 5562 5559 5556 5552 5549 5546 5543 5541 5540 5539 5538 5537 5536 5536 5534 5533 5531 5528 5526 5522
5652 5649 5646 5643 5639 5635 5631 5626 5621 5616 5611 5605 5600 5594 5589 5585 5580 5577 5573 5570 5567 5564 5562 5559 5556 5553 5550 5547 5544 5542 5541 5540 5539 5539 5539 5538 5537 5536 5535 5533 5531 5528 5525